"Pseudo-MPEC" for P10LpbP

Created 2019 Jan 13 16:18:36 UT using Find_Orb

Click here for an explanation of pseudo-MPECs

 
 Astrometry: 
     P10LpbP  C2019 01 11ECI*/$-F/5Cd%Y?rTi3.Astrometry_l@x_e[fwd0s%rk%x!nu?MF51
     P10LpbP  C2019 01 11qv%kNV0+.6I.!BgsgFKhnbB.UBq7UB354bSDrredacted;8,baocF51
     P10LpbP  C2019 01 11m+;UMJ0oclickuKr5`,Qm*#,k@G`]+PtVgiIs+YF/Cp*EuV55@(GF51
     P10LpbP ^C2019 01 12.33012505 44 58.872-11 37 58.65   ~1CJI 21.24GVNEOCP568
     P10LpbP ^C2019 01 12.33107205 44 58.801-11 37 56.53   ~1CJI 21.62GVNEOCP568
     P10LpbP ^C2019 01 12.33203205 44 58.728-11 37 54.37   ~1CJI 21.46GVNEOCP568
     P10LpbP |C2019 01 13!A(OQJ?TCJ3C31m=0hNy#j@`7rN)6d5khere_rA6B`k?dXwi0nRB807
     P10LpbP |C2019 01 13kDb[/QMnIn_E.PL.5#xyKRQH+a[YW9JV!,for?-3gV[LVCto1cLc807
     P10LpbP |C2019 01 13UZYgexplanationN^C)Db6WOm8#[XQ*C;V,#-UqS0MgC:;'7E%y[807

Station data:
(568) Mauna Kea  (N19.826116 W155.472200)  US/Hawaii.
(807) Cerro Tololo Observatory, La Serena  (S30.169136 W70.805900)  Chile.
   1.5-m Ritchey-Chrétien.
(F51) Pan-STARRS 1, Haleakala  (N20.707235 W156.255910)  US/Hawaii.
   Observers N. Primak, A. Schultz, S. Watters, J. Thiel, T. Goggia. Measurer
   PS1 Science Consortium. 1.8-m Ritchey-Chrétien + CCD.

Orbital elements:  P10LpbP
   Perihelion 2019 Feb 17.170759 +/- 0.224 TT =  4:05:53 (JD 2458531.670759)
Epoch 2019 Jan 13.0 TT = JDT 2458496.5   Earth MOID: 0.0122   AutoNEOCP
M 344.96049648 +/- 1.1              (J2000 ecliptic)
n   0.42761384 +/- 0.0299           Peri.   29.83172 +/- 0.21
a   1.74489062 +/- 0.0812           Node   122.58983 +/- 0.16
e   0.4505451 +/- 0.0266            Incl.   11.56670 +/- 0.47
P   2.30/841.87d           H 25.6   G  0.15   U 10.4  
q 0.95873852 +/- 0.00191    Q 2.53104271 +/- 0.171
From 9 observations 2019 Jan. 11-13 (41.6 hr); mean residual 0".15
Residuals in arcseconds: 
190111 F51  .06-  .10-    190112 568  .12+  .03+    190113 807  .19+  .15+    
190111 F51  .01-  .08-    190112 568  .15+  .03+    190113 807  .19-  .33-    
190111 F51  .14-  .14+    190112 568  .16+  .03+    190113 807  .22-  .14+    

Ephemerides (geocentric):
Date (UTC) HH   RA              Dec         delta   r     elong  mag " sig PA
---- -- -- --  -------------   -----------  ------ ------ -----  --- ---- ---
2019 01 13 16  05 44 11.024   -10 40 15.20  .07393 1.0390 137.2 21.6 6.74   0
2019 01 13 17  05 44 09.551   -10 38 15.75  .07369 1.0388 137.2 21.6 7.24 179
2019 01 13 18  05 44 08.076   -10 36 15.41  .07346 1.0387 137.2 21.6 7.76 179
2019 01 13 19  05 44 06.599   -10 34 14.20  .07322 1.0385 137.2 21.6 8.30 178
2019 01 13 20  05 44 05.121   -10 32 12.08  .07299 1.0383 137.2 21.6 8.85 178
2019 01 13 21  05 44 03.641   -10 30 09.07  .07275 1.0381 137.2 21.6 9.43 177
2019 01 13 22  05 44 02.158   -10 28 05.14  .07252 1.0379 137.2 21.6 10.0 177
2019 01 13 23  05 44 00.674   -10 26 00.29  .07228 1.0378 137.2 21.6 10.6 177
2019 01 14 00  05 43 59.189   -10 23 54.52  .07205 1.0376 137.2 21.6 11.3 176
2019 01 14 01  05 43 57.701   -10 21 47.81  .07182 1.0374 137.2 21.5 11.9 176
2019 01 14 02  05 43 56.211   -10 19 40.16  .07158 1.0372 137.2 21.5 12.6 176
2019 01 14 03  05 43 54.719   -10 17 31.56  .07135 1.0370 137.2 21.5 13.3 175
2019 01 14 04  05 43 53.225   -10 15 21.99  .07111 1.0369 137.2 21.5 14.0 175
2019 01 14 05  05 43 51.729   -10 13 11.46  .07088 1.0367 137.2 21.5 14.7 175
2019 01 14 06  05 43 50.231   -10 10 59.95  .07064 1.0365 137.2 21.5 15.5 175
2019 01 14 07  05 43 48.731   -10 08 47.44  .07041 1.0363 137.2 21.5 16.2 174
2019 01 14 08  05 43 47.228   -10 06 33.95  .07018 1.0361 137.2 21.5 17.0 174
2019 01 14 09  05 43 45.724   -10 04 19.44  .06994 1.0360 137.2 21.5 17.9 174
2019 01 14 10  05 43 44.217   -10 02 03.92  .06971 1.0358 137.2 21.5 18.7 174
2019 01 14 11  05 43 42.708   -09 59 47.38  .06947 1.0356 137.2 21.5 19.6 174
2019 01 14 12  05 43 41.197   -09 57 29.80  .06924 1.0354 137.2 21.5 20.5 174
2019 01 14 13  05 43 39.683   -09 55 11.17  .06901 1.0353 137.2 21.5 21.4 173
2019 01 14 14  05 43 38.167   -09 52 51.49  .06877 1.0351 137.2 21.5 22.3 173
2019 01 14 15  05 43 36.649   -09 50 30.75  .06854 1.0349 137.2 21.4 23.3 173
2019 01 14 16  05 43 35.128   -09 48 08.93  .06831 1.0347 137.2 21.4 24.3 173
2019 01 14 17  05 43 33.605   -09 45 46.03  .06807 1.0345 137.2 21.4 25.3 173
2019 01 14 18  05 43 32.079   -09 43 22.03  .06784 1.0344 137.2 21.4 26.3 173
2019 01 14 19  05 43 30.551   -09 40 56.92  .06760 1.0342 137.2 21.4 27.4 173
2019 01 14 20  05 43 29.020   -09 38 30.70  .06737 1.0340 137.2 21.4 28.5 173
2019 01 14 21  05 43 27.486   -09 36 03.36  .06714 1.0338 137.2 21.4 29.6 172
2019 01 14 22  05 43 25.950   -09 33 34.87  .06690 1.0337 137.2 21.4 30.8 172
2019 01 14 23  05 43 24.412   -09 31 05.23  .06667 1.0335 137.2 21.4 32.0 172
2019 01 15 00  05 43 22.870   -09 28 34.43  .06644 1.0333 137.2 21.4 33.2 172
2019 01 15 01  05 43 21.326   -09 26 02.46  .06620 1.0331 137.2 21.4 34.4 172
2019 01 15 02  05 43 19.778   -09 23 29.31  .06597 1.0330 137.2 21.4 35.7 172
2019 01 15 03  05 43 18.228   -09 20 54.96  .06574 1.0328 137.2 21.4 37.0 172
2019 01 15 04  05 43 16.676   -09 18 19.40  .06551 1.0326 137.2 21.3 38.3 172
2019 01 15 05  05 43 15.120   -09 15 42.63  .06527 1.0324 137.2 21.3 39.7 172
2019 01 15 06  05 43 13.561   -09 13 04.62  .06504 1.0323 137.2 21.3 41.1 172
2019 01 15 07  05 43 11.999   -09 10 25.37  .06481 1.0321 137.2 21.3 42.5 172
2019 01 15 08  05 43 10.434   -09 07 44.86  .06457 1.0319 137.2 21.3 44.0 172
2019 01 15 09  05 43 08.866   -09 05 03.08  .06434 1.0317 137.2 21.3 45.5 172
2019 01 15 10  05 43 07.295   -09 02 20.01  .06411 1.0316 137.2 21.3 47.0 172
2019 01 15 11  05 43 05.720   -08 59 35.66  .06388 1.0314 137.2 21.3 48.6 172
2019 01 15 12  05 43 04.142   -08 56 49.99  .06364 1.0312 137.2 21.3 50.2 171
2019 01 15 13  05 43 02.561   -08 54 03.00  .06341 1.0310 137.2 21.3 51.9 171
2019 01 15 14  05 43 00.977   -08 51 14.67  .06318 1.0309 137.2 21.3 53.6 171
2019 01 15 15  05 42 59.389   -08 48 25.00  .06295 1.0307 137.2 21.3 55.3 171